Other Public Products
Issued by NWS Grand Forks, ND

Home | Current Version | Previous Version | Text Only | Print | Product List | Glossary Off
Versions: 1 2 3 4 5 6 7 8 9 10 11 12 13 14 15 16 17 18 19 20 21 22 23 24 25 26 27 28 29 30 31 32 33 34 35 36 37 38 39 40 41 42 43 44 45 46 47 48 49 50

000
FPUS83 KFGF 271731
OPUFGF
PRAIRIE TO PINES WEATHER ROUNDUP
NATIONAL WEATHER SERVICE EASTERN NORTH DAKOTA/GRAND FORKS ND
1200 PM CDT THU AUG 27 2015

 **SATELLITE DATA USED TO AUGMENT SKY COVER AT AUTOMATED STATIONS**
 *****  WEATHER ACROSS EASTERN NORTH DAKOTA  *****

CITY           SKY/WX    TMP DP  RH WIND       PRES   REMARKS
GRAND FORKS    PTSUNNY   70  58  65 SE6       29.96F
GRAND FORKS AF MOSUNNY   70  59  68 E6        29.96F
GRAND CITY NWS   N/A     70 N/A N/A SE3         N/A
BUXTON         NOT AVBL
DEVILS LAKE    PTSUNNY   73  61  64 S7        29.96S
FARGO          MOSUNNY   73  62  68 E6        29.96F
WAHPETON ARPT  SUNNY     73  61  64 SW5       29.98F
$$

 *****  WEATHER ACROSS CENTRAL AND WESTERN NORTH DAKOTA  *****

CITY           SKY/WX    TMP DP  RH WIND       PRES   REMARKS
JAMESTOWN      MOSUNNY   73  63  70 SE9       29.97R
BISMARCK       CLOUDY    74  64  71 SW3       29.98F
MINOT          PTSUNNY   72  62  71 CALM      29.97S
MINOT AFB      PTSUNNY   75  65  73 VRB1      29.96S
GARRISON         N/A     76  64  66 SE5       29.98R
WILLISTON      MOSUNNY   75  62  64 CALM      29.98S
DICKINSON      CLOUDY    78  60  53 SW8       29.97F
HETTINGER      CLOUDY    72  60  66 SE5       30.01S
$$

 *****  OTHER OBSERVATIONS NORTHEAST NORTH DAKOTA  *****

CITY           SKY/WX    TMP DP  RH WIND       PRES   REMARKS
WALHALLA       FAIR      72  66  83 MISG      29.96S
LANGDON        FAIR      81  63  54 VRB5      29.96F
CAVALIER       FAIR      73  59  60 E5        29.96F
GRAFTON        FAIR      72  61  68 SE7       29.97F
CANDO          FAIR      73  64  73 E6        29.97R
FORT TOTTEN      N/A     74  64  71 SE3       29.95S
ROLLA            N/A     75  59  57 NE3       29.97F
RUGBY          FAIR      73  64  73 SE5       29.96R
 ***** THE ABOVE OBSERVATIONS ARE NON NWS ARE NOT QUALITY
        CONTROLLED AND MAY MIS-REPORT RAIN FOR SNOW...
$$

 *****  OTHER OBSERVATIONS SOUTHEAST NORTH DAKOTA *****

CITY           SKY/WX    TMP DP  RH WIND       PRES   REMARKS
COOPERSTOWN    NOT AVBL
VALLEY CITY    FAIR      72  66  83 SE9       29.99R
OAKES            N/A     73  70  88 SE5       29.97F
GWINNER        FAIR      73  66  78 E6        29.98F
SHEYENNE NWR     N/A     75  65  70 S6        29.95S
BUFFALO        NOT AVBL
WYNDMERE         N/A     77  64  65 S5          N/A
 ***** THE ABOVE OBSERVATIONS ARE NON NWS ARE NOT QUALITY
       CONTROLLED AND MAY MIS-REPORT RAIN FOR SNOW...
$$

  *****  WEATHER ACROSS NORTHERN MINNESOTA  *****

CITY           SKY/WX    TMP DP  RH WIND       PRES   REMARKS
FLAG ISLAND    SUNNY     64  57  77 SE8       29.99F
WARROAD        SUNNY     70  61  73 E5        29.99F
ROSEAU         SUNNY     72  57  60 CALM      29.98F
HALLOCK        SUNNY     73  61  64 E6        29.95F
THF RVR FALLS  MOSUNNY  N/A N/A N/A SE6       29.97F
HALSTAD        NOT AVBL
FOSSTON        PTSUNNY   73  63  68 SE3       29.99F
BAUDETTE       SUNNY     71  56  58 CALM      30.00F
WASKISH        SUNNY     73  59  60 SE8       30.00F
CROOKSTON      MOSUNNY   72  61  68 SE7       29.97F
$$
  *****  WEATHER ACROSS CENTRAL AND WEST MINNESOTA  *****

CITY           SKY/WX    TMP DP  RH WIND       PRES   REMARKS
BEMIDJI        CLOUDY    70  58  67 SE7       30.01S
PARK RAPIDS    PTSUNNY   71  57  61 SE7       30.01F
WADENA         MOSUNNY   72  61  68 SE8       30.00S
DETROIT LAKES  MOSUNNY   70  61  73 SE8       30.00S
MOORHEAD       MOSUNNY   73  63  68 S8        29.98R
FERGUS FALLS   SUNNY     72  63  73 S9        29.98R
ELBOW LAKE     FAIR      71  63  76 S8        29.99S
MORRIS MN      MOSUNNY   70  63  78 S8        29.98F
STAPLES        MOSUNNY   72  57  60 SE7       30.00F
WHEATON        FAIR      70  63  78 SE3       29.99F
$$
  *****  WEATHER ELSEWHERE ACROSS MINNESOTA  *****

CITY           SKY/WX    TMP DP  RH WIND       PRES   REMARKS
DULUTH         MOSUNNY   68  55  63 S12       30.09S
INTRNTL FALLS  SUNNY     71  56  58 S8        30.02F
ELY            SUNNY     70  54  56 SW6       30.07S
CLOQUET        CLOUDY    70  55  60 S9        30.07F
BRAINERD       PTSUNNY   70  58  65 S10       30.03S
HIBBING        SUNNY     71  56  58 VRB7      30.06F
ALEXANDRIA     SUNNY     72  61  68 SE9       30.01F
SAINT CLOUD    MOSUNNY   73  59  61 S13       30.03S
MINNEAPOLIS    PTSUNNY   73  56  54 S10       30.07F
$$

  *****  WEATHER ACROSS SOUTH DAKOTA  *****

CITY           SKY/WX    TMP DP  RH WIND       PRES   REMARKS
SIOUX FALLS    CLOUDY    73  64  73 VRB6      30.02R
BROOKINGS      CLOUDY    66  63  88 S8        30.04R
WATERTOWN      CLOUDY    70  66  87 N9        29.97S
HURON          CLOUDY    72  66  81 SW8       29.98R
SISSETON         N/A     72  63  73 S6        29.96F
ABERDEEN       PTSUNNY   77  67  71 N5        29.96S
MITCHELL       CLOUDY    73  67  81 E12       29.98R
PIERRE         CLOUDY    74  65  73 E6        29.96F
MOBRIDGE       CLOUDY    72  68  87 CALM      29.97F
RAPID CITY     CLOUDY    70  61  73 N7        30.06R
$$

  *****  SOME WEATHER IN NEARBY STATES *****

CITY           SKY/WX    TMP DP  RH WIND       PRES   REMARKS
GLASGOW MT     MOSUNNY   76  57  51 CALM      29.97F
GREAT FALLS MT CLOUDY    68  42  38 VRB6      30.05R
CHEYENNE WY    PTSUNNY   73  48  41 NW21G29   30.21S
SCOTTSBLUFF NE PTSUNNY   76  58  53 NW13      30.05S
OMAHA NE       CLOUDY    72  60  66 SE20      30.07R
DES MOINES IA  CLOUDY    67  57  70 SE7       30.15F
DAVENPORT IA   PTSUNNY   71  58  63 VRB3      30.21R
CHICAGO IL     PTSUNNY   70  52  52 SE7       30.19S
EAU CLAIRE WI  MOSUNNY   72  56  57 S9        30.12F
LA CROSSE WI   CLOUDY    71  57  61 SE8       30.15R
$$

  *****  SOME NATIONAL WEATHER *****

CITY           SKY/WX    TMP DP  RH WIND       PRES   REMARKS
LA GUARDIA NY  PTSUNNY   78  53  41 NW6       30.04F
RALEIGH NC     PTSUNNY   80  60  50 NE8       30.09F
ATLANTA GA     MOSUNNY   81  66  60 E9G16     30.06F
NEW ORLEANS LA MOSUNNY   82  58  43 NW10      30.02F
OKLAHOMA CITY  MOSUNNY   90  69  50 S13       30.07F HX  94
ALBUQUERQUE NM PTSUNNY   75  55  49 CALM      30.34S
SALT LAKE CITY MOSUNNY   78  55  44 S7        30.24S
LOS ANGELES CA MOSUNNY   77  69  76 W7        29.99R
BOISE ID       PTSUNNY   82  37  20 NW3       30.14S
SEATTLE WA     MOSUNNY   67  52  58 S6        30.10S
$$

*** WEATHER ACROSS MANITOBA...SASKATCHEWAN AND ONTARIO ***
                ***ONTARIO***

CITY           SKY/WX    TMP DP  RH WIND       PRES   REMARKS
GERALDTON      PTSUNNY   70  50  49 W12       30.05F
THUNDER BAY    SUNNY     68  54  60 E7        30.07F
SIOUX LOOKOUT  PTSUNNY   70  54  56 SW5       30.01F
TORONTO        PTSUNNY   64  54  68 W6        30.15S
BIG TROUT LK   MOSUNNY   64  55  72 S6        29.90F
PICKLE LAKE    MOSUNNY   70  50  49 W9        29.96F
DRYDEN         SUNNY     70  52  52 SW9       30.02S
KENORA         CLOUDY    70  54  56 SW6       30.01F
$$
                *** MANITOBA***

CITY           SKY/WX    TMP DP  RH WIND       PRES   REMARKS
BRANDON        MOSUNNY   72  61  68 VRB2      29.96F
DAUPHIN        SUNNY     72  59  64 SW5       29.94F
ISLAND LAKE    PTSUNNY   66  55  68 NW3       29.92F
PILOT MOUND      N/A    N/A N/A N/A W2          N/A
THE PAS        MOSUNNY   64  59  82 SE9       29.90F
THOMPSON       PTSUNNY   57  50  77 CALM      29.93F
WINNIPEG       SUNNY     70  57  64 SE5       29.96F
LYNN LAKE      PTSUNNY   61  48  63 MISG      29.89F
CHURCHILL      PTSUNNY   61  45  55 W12G18    29.84F
GILLAM         PTSUNNY   55  48  76 NW5       29.93F
$$
                ***SASKATCHEWAN***

CITY           SKY/WX    TMP DP  RH WIND       PRES   REMARKS
ESTEVAN        MOSUNNY   77  61  57 S6        29.97F
KINDERSLEY     PTSUNNY   64  55  72 W3        29.93F
LLOYDMINSTER   PTSUNNY   66  55  68 CALM      29.93S
PRINCE ALBERT  CLOUDY    66  59  77 CALM      29.91F
REGINA         PTSUNNY   72  59  64 S8        29.94F



USA.gov is the U.S. government's official web portal to all federal, state and local government web resources and services.